Time,TemperatureF,DewpointF,PressureIn,WindDirection,WindDirectionDegrees,WindSpeedMPH,WindSpeedGustMPH,Humidity,HourlyPrecipIn,Conditions,Clouds,dailyrainin,SoftwareType,DateUTC
2013-01-27 05:45:00,44.3,27.3,29.58,SW,225,10.0,16.0,51,0.00,,---,0.01,VWS V14.01,2013-01-27 12:45:00,
2013-01-27 06:01:00,44.3,27.3,29.58,SW,225,10.0,16.0,51,0.00,,---,0.01,VWS V14.01,2013-01-27 13:01:00,
2013-01-27 06:06:00,41.3,25.9,29.62,SSW,198,7.0,7.0,54,0.00,,---,0.01,VWS V14.01,2013-01-27 13:06:00,
2013-01-27 06:11:00,42.3,26.9,29.61,WSW,237,12.0,12.0,54,0.00,,---,0.01,VWS V14.01,2013-01-27 13:11:00,
2013-01-27 06:16:00,42.4,27.0,29.62,SSW,199,10.0,11.0,54,0.00,,---,0.01,VWS V14.01,2013-01-27 13:16:00,
2013-01-27 06:21:00,42.7,26.8,29.62,SW,227,8.0,8.0,53,0.00,,---,0.01,VWS V14.01,2013-01-27 13:21:00,
2013-01-27 06:26:00,43.0,27.0,29.62,SW,216,5.0,5.0,53,0.00,,---,0.01,VWS V14.01,2013-01-27 13:26:00,
2013-01-27 06:31:00,44.0,26.1,29.61,SSW,198,10.0,14.0,49,0.00,,---,0.01,VWS V14.01,2013-01-27 13:31:00,
2013-01-27 06:36:00,45.0,26.0,29.61,SW,234,12.0,12.0,47,0.00,,---,0.01,VWS V14.01,2013-01-27 13:36:00,
2013-01-27 06:41:00,44.9,25.9,29.61,West,275,11.0,11.0,47,0.00,,---,0.01,VWS V14.01,2013-01-27 13:41:00,
2013-01-27 06:46:00,45.0,26.0,29.62,West,273,11.0,11.0,47,0.00,,---,0.01,VWS V14.01,2013-01-27 13:46:00,
2013-01-27 06:51:00,44.9,25.9,29.61,SSW,195,8.0,9.0,47,0.00,,---,0.01,VWS V14.01,2013-01-27 13:51:00,
2013-01-27 06:56:00,44.7,25.2,29.61,South,185,7.0,10.0,46,0.00,,---,0.01,VWS V14.01,2013-01-27 13:56:00,
2013-01-27 07:01:00,45.3,25.8,29.61,South,183,9.0,9.0,46,0.00,,---,0.01,VWS V14.01,2013-01-27 14:01:00,
2013-01-27 07:06:00,44.5,25.5,29.62,WSW,246,6.0,6.0,47,0.00,,---,0.01,VWS V14.01,2013-01-27 14:06:00,
2013-01-27 07:11:00,43.0,26.6,29.63,SW,234,7.0,7.0,52,0.00,,---,0.01,VWS V14.01,2013-01-27 14:11:00,
2013-01-27 07:16:00,42.6,25.3,29.63,WSW,245,9.0,9.0,50,0.00,,---,0.01,VWS V14.01,2013-01-27 14:16:00,
2013-01-27 07:21:00,43.6,26.7,29.62,WSW,254,5.0,7.0,51,0.00,,---,0.01,VWS V14.01,2013-01-27 14:21:00,
2013-01-27 07:26:00,41.9,27.4,29.64,West,264,6.0,8.0,56,0.00,,---,0.01,VWS V14.01,2013-01-27 14:26:00,
2013-01-27 07:31:00,40.5,27.3,29.66,WSW,258,6.0,9.0,59,0.00,,---,0.01,VWS V14.01,2013-01-27 14:31:00,
2013-01-27 07:36:00,40.0,27.6,29.66,West,272,6.0,7.0,61,0.00,,---,0.01,VWS V14.01,2013-01-27 14:36:00,
2013-01-27 07:41:00,39.2,28.1,29.67,WSW,250,1.0,4.0,64,0.00,,---,0.01,VWS V14.01,2013-01-27 14:41:00,
2013-01-27 07:46:00,39.0,27.9,29.67,WSW,256,1.0,7.0,64,0.00,,---,0.01,VWS V14.01,2013-01-27 14:46:00,
2013-01-27 07:51:00,39.2,28.1,29.68,WSW,258,0.0,4.0,64,0.00,,---,0.01,VWS V14.01,2013-01-27 14:51:00,
2013-01-27 07:56:00,39.3,28.2,29.68,WSW,257,1.0,4.0,64,0.00,,---,0.01,VWS V14.01,2013-01-27 14:56:00,
2013-01-27 08:01:00,39.3,28.2,29.68,WSW,258,1.0,1.0,64,0.00,,---,0.01,VWS V14.01,2013-01-27 15:01:00,
2013-01-27 08:06:00,39.2,28.1,29.67,West,262,1.0,7.0,64,0.00,,---,0.01,VWS V14.01,2013-01-27 15:06:00,
2013-01-27 08:11:00,39.1,28.3,29.67,West,261,0.0,2.0,65,0.00,,---,0.01,VWS V14.01,2013-01-27 15:11:00,
2013-01-27 08:16:00,39.2,28.1,29.67,WSW,257,0.0,4.0,64,0.00,,---,0.01,VWS V14.01,2013-01-27 15:16:00,
2013-01-27 08:21:00,39.3,27.8,29.67,WSW,257,6.0,6.0,63,0.00,,---,0.01,VWS V14.01,2013-01-27 15:21:00,
2013-01-27 08:26:00,39.6,27.7,29.67,West,280,4.0,6.0,62,0.00,,---,0.01,VWS V14.01,2013-01-27 15:26:00,
2013-01-27 08:31:00,39.6,28.1,29.68,West,280,4.0,6.0,63,0.00,,---,0.01,VWS V14.01,2013-01-27 15:31:00,
2013-01-27 08:36:00,39.8,28.2,29.68,West,277,2.0,4.0,63,0.00,,---,0.01,VWS V14.01,2013-01-27 15:36:00,
2013-01-27 08:41:00,40.4,28.4,29.68,West,277,0.0,2.0,62,0.00,,---,0.01,VWS V14.01,2013-01-27 15:41:00,
2013-01-27 08:46:00,41.1,28.7,29.66,SW,231,5.0,6.0,61,0.00,,---,0.01,VWS V14.01,2013-01-27 15:46:00,
2013-01-27 08:51:00,41.7,28.4,29.67,WSW,246,0.0,5.0,59,0.00,,---,0.01,VWS V14.01,2013-01-27 15:51:00,
2013-01-27 08:56:00,42.1,28.8,29.66,WSW,246,2.0,2.0,59,0.00,,---,0.01,VWS V14.01,2013-01-27 15:56:00,
2013-01-27 09:01:00,42.5,28.8,29.67,WSW,246,0.0,0.0,58,0.00,,---,0.01,VWS V14.01,2013-01-27 16:01:00,
2013-01-27 09:06:00,43.4,28.8,29.63,WSW,246,1.0,4.0,56,0.00,,---,0.01,VWS V14.01,2013-01-27 16:06:00,
2013-01-27 09:12:00,43.6,29.0,29.61,WSW,246,1.0,4.0,56,0.00,,---,0.01,VWS V14.01,2013-01-27 16:12:00,
2013-01-27 09:17:00,43.7,28.2,29.61,WSW,246,0.0,0.0,54,0.00,,---,0.01,VWS V14.01,2013-01-27 16:17:00,
2013-01-27 09:22:00,43.8,28.2,29.61,WSW,246,2.0,4.0,54,0.00,,---,0.01,VWS V14.01,2013-01-27 16:22:00,
2013-01-27 09:27:00,44.0,28.4,29.61,WSW,246,0.0,4.0,54,0.00,,---,0.01,VWS V14.01,2013-01-27 16:27:00,
2013-01-27 09:32:00,44.3,27.8,29.62,WSW,246,0.0,1.0,52,0.00,,---,0.01,VWS V14.01,2013-01-27 16:32:00,
2013-01-27 09:37:00,45.0,27.0,29.62,West,263,1.0,10.0,49,0.00,,---,0.01,VWS V14.01,2013-01-27 16:37:00,
2013-01-27 09:42:00,45.3,29.2,29.61,West,269,5.0,7.0,53,0.00,,---,0.01,VWS V14.01,2013-01-27 16:42:00,
2013-01-27 09:47:00,45.0,29.4,29.62,West,264,7.0,8.0,54,0.00,,---,0.01,VWS V14.01,2013-01-27 16:47:00,
2013-01-27 09:52:00,45.2,26.2,29.63,West,260,5.0,11.0,47,0.00,,---,0.01,VWS V14.01,2013-01-27 16:52:00,
2013-01-27 09:57:00,46.5,26.3,29.61,WSW,254,6.0,16.0,45,0.00,,---,0.01,VWS V14.01,2013-01-27 16:57:00,
2013-01-27 21:15:00,38.1,19.7,29.68,South,180,1.0,5.0,47,0.00,,---,0.01,VWS V14.01,2013-01-28 04:15:00,
2013-01-27 21:29:00,37.9,20.0,29.67,South,169,0.0,1.0,48,0.00,,---,0.01,VWS V14.01,2013-01-28 04:29:00,
2013-01-27 21:35:00,37.6,20.2,29.67,South,169,2.0,2.0,49,0.00,,---,0.01,VWS V14.01,2013-01-28 04:35:00,
2013-01-27 21:40:00,37.9,20.0,29.67,South,169,2.0,5.0,48,0.00,,---,0.01,VWS V14.01,2013-01-28 04:40:00,
2013-01-27 21:45:00,38.2,19.8,29.67,South,169,2.0,6.0,47,0.00,,---,0.01,VWS V14.01,2013-01-28 04:45:00,
2013-01-27 21:50:00,38.4,19.9,29.66,South,169,0.0,1.0,47,0.00,,---,0.01,VWS V14.01,2013-01-28 04:50:00,
2013-01-27 21:55:00,38.2,20.2,29.67,South,169,2.0,3.0,48,0.00,,---,0.01,VWS V14.01,2013-01-28 04:55:00,
2013-01-27 22:00:00,38.3,19.4,29.66,South,169,1.0,2.0,46,0.00,,---,0.01,VWS V14.01,2013-01-28 05:00:00,
2013-01-27 22:01:00,38.2,19.3,29.66,SSE,168,0.0,2.0,46,0.00,,---,0.01,VWS V14.01,2013-01-28 05:01:00,
2013-01-27 22:03:00,38.3,19.4,29.66,South,169,0.0,2.0,46,0.00,,---,0.01,VWS V14.01,2013-01-28 05:03:00,
2013-01-27 22:08:00,38.0,21.0,29.65,SW,218,0.0,4.0,50,0.00,,---,0.01,VWS V14.01,2013-01-28 05:08:00,
2013-01-27 22:13:00,37.6,21.6,29.65,SW,218,0.0,0.0,52,0.00,,---,0.01,VWS V14.01,2013-01-28 05:13:00,
2013-01-27 22:18:00,37.3,21.3,29.65,SW,217,6.0,8.0,52,0.00,,---,0.01,VWS V14.01,2013-01-28 05:18:00,
2013-01-27 22:23:00,37.3,21.3,29.65,SW,219,1.0,3.0,52,0.00,,---,0.01,VWS V14.01,2013-01-28 05:23:00,
2013-01-27 22:28:00,37.3,20.9,29.65,SSW,207,4.0,10.0,51,0.00,,---,0.01,VWS V14.01,2013-01-28 05:28:00,
2013-01-27 22:33:00,37.5,19.6,29.66,SSW,207,0.0,1.0,48,0.00,,---,0.01,VWS V14.01,2013-01-28 05:33:00,
2013-01-27 22:38:00,37.9,20.9,29.66,SSW,206,4.0,4.0,50,0.00,,---,0.01,VWS V14.01,2013-01-28 05:38:00,
2013-01-27 22:43:00,37.3,20.9,29.65,SSW,207,0.0,4.0,51,0.00,,---,0.01,VWS V14.01,2013-01-28 05:43:00,
2013-01-27 22:48:00,36.9,20.9,29.65,SSW,192,1.0,4.0,52,0.00,,---,0.01,VWS V14.01,2013-01-28 05:48:00,
2013-01-27 22:53:00,36.9,20.5,29.66,SSW,192,2.0,8.0,51,0.00,,---,0.01,VWS V14.01,2013-01-28 05:53:00,
2013-01-27 22:58:00,37.1,20.7,29.66,South,191,0.0,4.0,51,0.00,,---,0.01,VWS V14.01,2013-01-28 05:58:00,
2013-01-27 23:03:00,37.1,20.7,29.65,South,191,2.0,4.0,51,0.00,,---,0.01,VWS V14.01,2013-01-28 06:03:00,
2013-01-27 23:08:00,37.5,20.6,29.63,South,191,0.0,4.0,50,0.00,,---,0.01,VWS V14.01,2013-01-28 06:08:00,
2013-01-27 23:13:00,37.7,20.8,29.63,South,190,0.0,2.0,50,0.00,,---,0.01,VWS V14.01,2013-01-28 06:13:00,
2013-01-27 23:18:00,37.8,20.8,29.62,South,190,0.0,2.0,50,0.00,,---,0.01,VWS V14.01,2013-01-28 06:18:00,
2013-01-27 23:23:00,37.8,21.3,29.62,South,190,0.0,1.0,51,0.00,,---,0.01,VWS V14.01,2013-01-28 06:23:00,
2013-01-27 23:28:00,38.1,20.2,29.63,SSW,195,1.0,10.0,48,0.00,,---,0.01,VWS V14.01,2013-01-28 06:28:00,
2013-01-27 23:33:00,38.6,20.6,29.64,SSW,195,0.0,3.0,48,0.00,,---,0.01,VWS V14.01,2013-01-28 06:33:00,